Home > Weather > Ny-Ålesund > Past weeks

Flag for Norway Weather for the Past 2 Weeks in Ny-Ålesund, Svalbard, Norway

Now
13 °F

Snow. Low clouds.


Feels Like: 13 °F
Forecast: 13 / 16 °F
Wind: 2 mph from West

Location: Ny Alesund

Current Time: Feb 11, 2016 at 7:43:09 AM

Latest Report: Feb 11, 2016 at 7:00 AM


Visibility: 1 mi

Pressure: 29.26 "Hg

Humidity: 83%

Dew point: 8 °F

Location of Ny-ÅlesundLocation

Historic Weather in Ny-Ålesund — Graph

°F

Ny-Ålesund Temperature Yesterday

Maximum temperature yesterday: 13 °F (at 6:00 AM)
Minimum temperature yesterday: 10 °F (at 11:00 AM)
Average temperature yesterday: 11 °F

High & Low Weather Summary for the Past Weeks

 TemperatureHumidityPressure
High31 °F (Jan 30, 9:00 AM)84% (Feb 11, 2:00 AM)29.94 "Hg (Feb 11, 2:00 AM)
Low6 °F (Feb 6, 9:00 PM)48% (Jan 28, 10:00 PM)28.91 "Hg (Jan 29, 6:00 AM)
Average17 °F61%29.38 "Hg
* Reported Jan 27 5:00 AM — Feb 11 5:00 AM, Ny-Ålesund, Weather by CustomWeather, © 2016

Note: Actual official high and low records may vary slightly from our data, if they occured in-between our weather recording intervals... More about our weather records

Advertising

Ny-Ålesund Weather History for the Previous 24 Hours

 ConditionsComfort  
Time TempWeatherWind HumidityBarometerVisibility
5:00 AM
Thu, Feb 11
12 °FCold.1 mph82%29.26 "HgN/A
4:00 AM12 °FCold.2 mph83%29.26 "HgN/A
2:00 AM12 °FCold.1 mph84%29.26 "HgN/A
1:00 AM12 °FCold.1 mph83%29.26 "HgN/A
10:00 PM
Wed, Feb 10
11 °FCold.2 mph81%29.26 "HgN/A
9:00 PM11 °FCold.3 mph79%29.26 "HgN/A
8:00 PM10 °FCold.3 mph76%29.26 "HgN/A
7:00 PM12 °FSnow flurries. Overcast.3 mph72%29.26 "Hg12 mi
6:00 PM11 °FCold.3 mph70%29.23 "HgN/A
5:00 PM12 °FCold.5 mph69%29.23 "HgN/A
4:00 PM11 °FCold.5 mph72%29.23 "HgN/A
1:00 PM11 °FOvercast.8 mph67%29.23 "Hg17 mi
12:00 PM10 °FCold.10 mph69%29.26 "HgN/A
11:00 AM10 °FFrigid.9 mph68%29.26 "HgN/A
10:00 AM11 °FCold.8 mph69%29.23 "HgN/A
9:00 AM12 °FCold.8 mph67%29.23 "HgN/A
8:00 AM11 °FCold.8 mph66%29.23 "HgN/A
7:00 AM12 °FScattered clouds.9 mph67%29.23 "Hg47 mi
Weather by CustomWeather, © 2016

See weather overviewHow to use our weather pages